TIME,�g��[���C[MJ/h],����[MJ/h],�Ɩ�[MJ/h],�~�[[MJ/h],�①��[MJ/h],��y���[MJ/h],�Ǝ��q��[MJ/h],���̑��s��[MJ/h],�u�����`������[MJ/h]
2004/12/1 0:00,0,0,0.25488,0.02448,0.41328,0.288,0.08208,0,-0.00144
2004/12/1 0:15,0.85536,0,0.29664,0.02304,0.2088,0.3096,0.08784,0,0.0072
2004/12/1 0:30,1.80576,0,0.26496,0.0216,0,0.3312,0.08352,0,0.05472
2004/12/1 0:45,0,0,0.24912,0.02592,0.31824,0.216,0.08064,0,0.0072
2004/12/1 1:00,0,0,0.24624,0.02304,0.28656,0.21744,0.08208,0,0.01728
2004/12/1 1:15,0,0,0.24336,0.0216,0,0.21744,0.08352,0,0.04896
2004/12/1 1:30,0,0,0.23472,0.02448,0.2088,0.216,0.08928,0,0.01296
2004/12/1 1:45,0,0,0.23904,0.0216,0.30816,0.21744,0.08784,0,0.0216
2004/12/1 2:00,0,0,0.2376,0.0216,0,0.216,0.05184,0,0.05184
2004/12/1 2:15,0,0,0.24624,0.02592,0.18288,0.21888,0.08496,0,0.0216
2004/12/1 2:30,0,0,0.23904,0.02448,0.32544,0.21744,0.08784,0,0.00864
2004/12/1 2:45,0,0,0.25488,0.0216,0,0.216,0.08784,0,0.05472
2004/12/1 3:00,0,0,0.26352,0.02304,0.14976,0.216,0.08496,0,0.0216
2004/12/1 3:15,0,0,0.24912,0.02592,0.36288,0.216,0.08496,0,0.01584
2004/12/1 3:30,0,0,0.25056,0.0216,0,0.216,0.09216,0,0.04464
2004/12/1 3:45,0,0,0.2376,0.02448,0.10944,0.216,0.08928,0,0.0432
2004/12/1 4:00,0,0,0.24048,0.02736,0.39888,0.216,0.08784,0,0.00432
2004/12/1 4:15,0,0,0.2376,0.0216,0,0.21744,0.08784,0,0.05472
2004/12/1 4:30,0,0,0.23328,0.0216,0.04608,0.216,0.0864,0,0.04896
2004/12/1 4:45,0,0,0.23616,0.02592,0.45936,0.21888,0.0864,0,0.00576
2004/12/1 5:00,0,0,0.26352,0.0216,0.00144,0.21744,0.08352,0,0.04752
2004/12/1 5:15,0,0,0.25632,0.0216,0,0.216,0.09072,0,0.04896
2004/12/1 5:30,0,0,0.252,0.02592,0.43488,0.21744,0.08928,0,0.0072
2004/12/1 5:45,0,0,0.25488,0.02448,0.54432,0.21744,0.09216,0,-0.03312
2004/12/1 6:00,0,0,0.23904,0.02592,0.54432,0.216,0.08784,0,-0.03456
2004/12/1 6:15,0,0,0.23328,0.0216,0.4536,0.21888,0.11376,0,-0.01152
2004/12/1 6:30,3.55536,0,1.14768,0.9864,0.5472,0.21744,0.0864,0,-0.21456
2004/12/1 6:45,2.7792,0,2.43504,1.46016,0.49392,0.21744,0.2304,0,-0.3168
2004/12/1 7:00,2.52144,0,2.12688,0.02448,0.20016,0.2376,0.22752,0,-0.18
2004/12/1 7:15,3.4488,0,2.52288,0.6696,0,0.29808,0.26496,0,-0.23616
2004/12/1 7:30,4.31568,0,2.89008,0.036,0.432,0.57312,0.15696,0,-0.36576
2004/12/1 7:45,3.23424,0,1.59696,0.54576,0.32112,0.6984,0.08208,0,-0.26784
2004/12/1 8:00,2.7648,0,1.98,0.0216,0,0.63072,0.44496,0,-0.2304
2004/12/1 8:15,2.81088,0,0.92304,0.03024,0.43056,0.4824,1.692,0,-0.30672
2004/12/1 8:30,2.85984,0,0.8568,0.02448,0.25632,0.50832,0.39024,0,-0.11808
2004/12/1 8:45,2.67696,0,2.00736,0.0216,0,0.50256,0.21744,0,-0.20304
2004/12/1 9:00,2.24064,0,2.86848,0.02448,0.27072,0.52848,0.08208,0,-0.30384
2004/12/1 9:15,1.36368,0,2.83392,0.03024,0.3816,0.5328,0.08352,0,-0.31968
2004/12/1 9:30,1.4256,0,2.82672,0.0216,0,0.52992,0.07488,0,-0.27072
2004/12/1 9:45,1.46448,0,2.81808,0.02304,0.13392,0.53136,0.08496,0,-0.28224
2004/12/1 10:00,1.3968,0,0.90144,0.03168,0.47232,0.36864,0.08352,0,-0.09792
2004/12/1 10:15,1.3752,0,0.8856,0.0216,0.03312,0.34416,0.07632,0,-0.04608
2004/12/1 10:30,1.3968,0,0.88416,0.0216,0.03168,0.34704,0.0864,0,-0.03168
2004/12/1 10:45,0.93888,0,0.96912,0.03024,0.46656,0.32832,0.08496,0,-0.08784
2004/12/1 11:00,0,0,1.13904,0.02448,0.14112,0.27072,0.08496,0,-0.06192
2004/12/1 11:15,0.0072,0,1.07856,0.0216,0,0.25632,0.09936,0,-0.07056
2004/12/1 11:30,0,0,0.47088,0.03312,0.40896,0.22032,0.08352,0,-0.0288
2004/12/1 11:45,0,0,0.41904,0.0288,0.24768,0.2232,0.09216,0,-0.00432
2004/12/1 12:00,0,0,0.42912,0.0216,0,0.22608,0.108,0,0.0288
2004/12/1 12:15,0,0,0.42192,0.02304,0.3096,0.2232,0.0792,0,-0.0072
2004/12/1 12:30,0,0,0.43776,0.036,0.35856,0.2232,0.08064,0,-0.01872
2004/12/1 12:45,0,0,0.4176,0.55728,0.01152,0.22032,0.0792,0,-0.0216
2004/12/1 13:00,0,0,0.43632,0.02448,0.20448,0.22032,0.08352,0,0.00144
2004/12/1 13:15,0,0,0.43344,0.02304,0.47664,0.2232,0.08208,0,-0.02592
2004/12/1 13:30,0,0,0.43344,0.0216,0,0.22176,0.08352,0,0.03024
2004/12/1 13:45,0,0,0.43344,0.02448,0.09504,0.22176,0.07776,0,0.01728
2004/12/1 14:00,0,0,0.43776,0.0288,0.48528,0.2232,0.08496,0,-0.03312
2004/12/1 14:15,0,0,0.4248,0.0216,0.0864,0.2232,0.08352,0,0.02592
2004/12/1 14:30,0,0,0.44928,0.0216,0.00864,0.22176,0.08496,0,0.02304
2004/12/1 14:45,0,0,0.49392,0.02592,0.47664,0.22032,0.08208,0,-0.03744
2004/12/1 15:00,0,0,0.38592,0.02448,0.1728,0.2232,0.04752,0,0.01872
2004/12/1 15:15,0,0,0.28512,0.0216,0,0.2232,0.08064,0,0.0432
2004/12/1 15:30,0,0,0.5832,0.5472,0.39168,0.21888,0.08352,0,-0.03312
2004/12/1 15:45,0,0,0.93312,1.9944,0.27648,0.22464,0.08352,0,-0.0576
2004/12/1 16:00,0.07344,0,0.95184,0.29808,0,0.21888,0.0792,0,-0.03456
2004/12/1 16:15,0,0,0.92304,0.11664,0.4104,0.35712,0.0792,0,-0.07632
2004/12/1 16:30,0,0,0.87696,0.07632,0.37584,0.31392,0.08064,0,-0.06624
2004/12/1 16:45,0,0,0.86544,0.07344,0,0.22176,0.07344,0,0.01296
2004/12/1 17:00,0,0,1.10304,0.84816,0.32256,0.21888,0.08352,0,-0.12096
2004/12/1 17:15,0,0,1.33344,0.06336,0.4824,0.22032,0.0792,0,-0.07776
2004/12/1 17:30,0,0,1.69632,0.0216,0.01296,0.22032,0.08208,0,-0.06768
2004/12/1 17:45,0,0,1.5552,0.02304,0.10512,0.22176,0.08208,0,-0.05184
2004/12/1 18:00,0,0,1.38384,0.02736,0.47952,0.23328,0.0792,0,-0.08784
2004/12/1 18:15,0,0,1.44864,0.02304,0.24192,0.22752,0.08208,0,-0.06336
2004/12/1 18:30,0,0,2.18304,0.0216,0,0.2376,0.08352,0,-0.12816
2004/12/1 18:45,0.39168,0,2.19456,0.02304,0.35568,0.28656,0.07488,0,-0.21888
2004/12/1 19:00,0.41616,0,2.10096,0.0288,0.40608,0.864,0.08208,0,-0.3168
2004/12/1 19:15,0.3528,0,2.01168,0.0216,0,0.648,0.08352,0,-0.19728
2004/12/1 19:30,0.31968,0,1.07568,0.02592,0.15264,0.31824,0.08208,0,-0.0792
2004/12/1 19:45,0.35712,0,0.81648,0.03168,0.47232,0.2376,0.07776,0,-0.10224
2004/12/1 20:00,0.32256,0,0.8064,0.0216,0.07056,0.22464,0.07776,0,-0.03456
2004/12/1 20:15,0.3096,0,0.81504,0.0216,0,0.22032,0.08064,0,-0.03456
2004/12/1 20:30,0.31104,0,0.81792,0.03024,0.45216,0.21744,0.0792,0,-0.09216
2004/12/1 20:45,0.28224,0,0.80784,0.02304,0.12672,0.22032,0.0792,0,-0.0432
2004/12/1 21:00,0.27504,0,0.82224,0.0216,0,0.22032,0.07632,0,-0.03024
2004/12/1 21:15,0.11952,0,0.99504,0.02304,0.41904,0.22032,0.08208,0,-0.07344
2004/12/1 21:30,0,0,1.22544,0.02448,0.15264,0.22032,0.08352,0,-0.03456
2004/12/1 21:45,0,0,1.22256,0.0216,0,0.22032,0.08496,0,-0.0072
2004/12/1 22:00,0,0,1.8792,0.03024,0.37584,0.22176,0.08496,0,-0.13392
2004/12/1 22:15,0,0,2.11392,0.0216,0.17712,0.21888,0.08496,0,-0.13248
2004/12/1 22:30,0.0216,0,1.89072,0.0216,0,0.22032,0.08352,0,-0.108
2004/12/1 22:45,0.12384,0,2.65824,0.02448,0.35136,0.22176,1.21248,0,-0.396
2004/12/1 23:00,1.69056,0,2.01888,0.02736,0.1944,0.21744,0.08208,0,-0.25632
2004/12/1 23:15,1.6128,0,1.7496,0.0216,0,0.22464,0.1152,0,-0.21024
2004/12/1 23:30,0.63072,0,0.80928,0.02592,0.3168,0.25056,0.08352,0,-0.0936
2004/12/1 23:45,0.08352,0,0.43056,0.02448,0.23184,0.23904,0.08784,0,-0.02016
2004/12/2 0:00,0,0,0.18576,0.0216,0,0.25632,0.08352,0,0.036
2004/12/2 0:15,0,0,0.19152,0.02592,0.27936,0.25488,0.0792,0,0.0144
2004/12/2 0:30,0,0,0.1872,0.02592,0.2592,0.2592,0.0792,0,0.00432
2004/12/2 0:45,0,0,0.18576,0.0216,0,0.2592,0.0864,0,0.04608
2004/12/2 1:00,0,0,0.17712,0.02448,0.25344,0.2592,0.08352,0,0.02592
2004/12/2 1:15,0,0,0.18,0.02448,0.28512,0.2592,0.08928,0,0.01584
2004/12/2 1:30,0,0,0.18576,0.0216,0,0.2592,0.0864,0,0.04896
2004/12/2 1:45,0,0,0.18432,0.02304,0.22896,0.2592,0.08352,0,0.02304
2004/12/2 2:00,0,0,0.18576,0.02304,0.26208,0.2592,0.0864,0,0.0072
2004/12/2 2:15,0,0,0.18432,0.0216,0,0.2592,0.0864,0,0.04464
2004/12/2 2:30,0,0,0.19008,0.02592,0.23184,0.2592,0.08352,0,0.00864
2004/12/2 2:45,0,0,0.18576,0.02592,0.30672,0.2592,0.08208,0,0.00864
2004/12/2 3:00,0,0,0.18432,0.0216,0,0.2592,0.09072,0,0.05472
2004/12/2 3:15,0,0,0.1872,0.02592,0.18576,0.2592,0.09072,0,0.0216
2004/12/2 3:30,0,0,0.18576,0.02304,0.30096,0.2592,0.08496,0,0.01008
2004/12/2 3:45,0,0,0.18144,0.0216,0,0.2592,0.09072,0,0.04464
2004/12/2 4:00,0,0,0.18144,0.02592,0.1728,0.2592,0.08496,0,0.02736
2004/12/2 4:15,0,0,0.18432,0.02304,0.35424,0.2592,0.08928,0,0.00864
2004/12/2 4:30,0,0,0.18144,0.0216,0,0.2592,0.08928,0,0.03888
2004/12/2 4:45,0,0,0.17856,0.02592,0.1296,0.2592,0.08496,0,0.02592
2004/12/2 5:00,0,0,0.18288,0.02736,0.35856,0.2592,0.0864,0,-0.00288
2004/12/2 5:15,0,0,0.18576,0.0216,0,0.2592,0.0864,0,0.04752
2004/12/2 5:30,0,0,0.18432,0.02448,0.09504,0.2592,0.08208,0,0.03744
2004/12/2 5:45,0,0,0.1728,0.02736,0.42912,0.2592,0.08208,0,0.00864
2004/12/2 6:00,0,0,0.18576,0.0216,0,0.2592,0.08496,0,0.0432
2004/12/2 6:15,0,0,0.19296,0.0216,0.02592,0.25632,0.08784,0,0.04032
2004/12/2 6:30,3.61152,0,1.05696,0.36288,0.4608,0.22032,0.08784,0,-0.11952
2004/12/2 6:45,2.58048,0,2.20176,1.22256,0.09504,0.22176,0.08352,0,-0.14112
2004/12/2 7:00,2.7144,0,2.81232,0.06192,0,0.26352,0.08496,0,-0.22176
2004/12/2 7:15,2.44944,0,2.81088,0.5976,0.45216,0.22464,0.41472,0,-0.31536
2004/12/2 7:30,2.31552,0,2.556,1.86768,0.0936,0.27792,0.8568,0,-0.20592
2004/12/2 7:45,2.25792,0,1.72512,0.4824,0,0.21744,0.08352,0,-0.08496
2004/12/2 8:00,0.79344,0,0.87696,0.04896,0.43776,0.21888,0.09936,0,-0.03168
2004/12/2 8:15,0,0,0.60048,0.02448,0.08928,0.27792,0.09216,0,-0.01008
2004/12/2 8:30,0,0,0.33264,0.0216,0,0.14256,0.08352,0,0.05184
2004/12/2 8:45,0,0,0.17424,0.02448,0.44784,0.11376,0.08064,0,0.02304
2004/12/2 9:00,0,0,0.16848,0.02304,0.03744,0.1152,0.08208,0,0.06624
2004/12/2 9:15,0,0,0.9648,0.0216,0.0144,0.11808,0.08064,0,-0.02448
2004/12/2 9:30,0,0,1.29744,0.0288,0.45648,0.1224,0.08208,0,-0.12528
2004/12/2 9:45,0,0,1.29312,0.0216,0.04176,0.11664,0.08064,0,-0.06048
2004/12/2 10:00,0,0,0.96624,0.0216,0,0.11808,0.08208,0,-0.0144
2004/12/2 10:15,0,0,0.37008,0.03024,0.46224,0.13104,0.0792,0,-0.00576
2004/12/2 10:30,0,0,0.36144,0.04032,0.55008,0.12384,0.08352,0,-0.04176
2004/12/2 10:45,0,0,0.36288,0.03456,0.56448,0.12384,0.08352,0,-0.04464
2004/12/2 11:00,0,0,0.35424,0.03024,0.44928,0.12096,0.08496,0,0.00144
2004/12/2 11:15,0,0,0.36864,0.02448,0.52848,0.12816,0.08064,0,-0.0144
2004/12/2 11:30,0,0,0.36432,0.02448,0.49248,0.11952,0.08064,0,-0.01152
2004/12/2 11:45,0,0,0.34848,0.02304,0.1728,0.11376,0.09504,0,0.03312
2004/12/2 12:00,0,0,0.36,0.02304,0.03456,0.12672,0.09792,0,0.04752
2004/12/2 12:15,0,0,0.38448,0.03024,0.4824,0.1152,0.0792,0,0.00288
2004/12/2 12:30,0,0,0.38304,0.02304,0.16128,0.1152,0.0792,0,0.03024
2004/12/2 12:45,0,0,0.37152,0.0216,0,0.11808,0.08496,0,0.05184
2004/12/2 13:00,0,0,0.38592,0.0288,0.40752,0.12096,0.0792,0,0.00288
2004/12/2 13:15,0,0,0.37584,0.02448,0.15408,0.11952,0.08784,0,0.03024
2004/12/2 13:30,0,0,0.36576,0.0216,0,0.1152,0.08496,0,0.05184
2004/12/2 13:45,0,0,0.41472,0.03168,0.40896,0.11664,0.08208,0,-0.0072
2004/12/2 14:00,0,0,0.42624,0.02304,0.1584,0.11808,0.14544,0,0.02592
2004/12/2 14:15,0,0,0.25488,0.0216,0,0.11232,0.12384,0,0.08064
2004/12/2 14:30,0,0,0.29376,0.02592,0.37872,0.12528,0.08784,0,0.01872
2004/12/2 14:45,0,0,0.37728,0.0216,0.13392,0.12672,0.08352,0,0.0288
2004/12/2 15:00,0,0,0.57456,0.0216,0,0.11376,0.0792,0,0.02592
2004/12/2 15:15,0,0,0.63504,0.02448,0.40176,0.11952,0.08352,0,-0.01296
2004/12/2 15:30,0,0,0.84096,0.02448,0.16704,0.12384,0.08352,0,0.04176
2004/12/2 15:45,0,0,0.97632,0.0216,0,0.1152,0.08352,0,0.07632
2004/12/2 16:00,0,0,0.78048,0.03024,0.36,0.10944,0.0792,0,0.03168
2004/12/2 16:15,0,0,0.6624,0.02736,0.17424,0.11808,0.08496,0,0.0504
2004/12/2 16:30,0,0,0.65808,0.0216,0,0.11232,0.08064,0,0.06768
2004/12/2 16:45,0,0,0.98496,0.68976,0.36864,0.11088,0.08064,0,-0.08784
2004/12/2 17:00,0,0,1.52208,0.02304,0.20448,0.2232,0.08352,0,-0.0576
2004/12/2 17:15,0,0,1.20672,0.0216,0,0.52128,0.0864,0,-0.04896
2004/12/2 17:30,0.20592,0,2.14416,0.02448,0.31824,0.5472,0.09072,0,-0.21312
2004/12/2 17:45,3.6072,0,3.03264,0.9648,0.2448,0.21744,0.0792,0,-0.27648
2004/12/2 18:00,6.36048,0,3.16512,0.54576,0,0.45216,0.14832,0,-0.31968
2004/12/2 18:15,5.97312,0,3.39264,0.02304,0.27072,0.75744,0.08352,0,-0.53136
2004/12/2 18:30,3.73104,0,4.12416,0.0288,0.34272,0.64224,0.08496,0,-0.57024
2004/12/2 18:45,4.45824,0,4.13712,0.0216,0,0.5616,0.14976,0,-0.52992
2004/12/2 19:00,3.90528,0,3.75264,0.75312,0.25344,0.55152,0.19152,0,-0.57168
2004/12/2 19:15,2.45088,0,1.62432,0.0288,0.47232,0.30672,0.14688,0,-0.30672
2004/12/2 19:30,2.07792,0,1.69344,0.0216,0.01728,0.396,0.08496,0,-0.252
2004/12/2 19:45,3.43872,0,2.66544,0.0216,0.04176,0.4608,0.21168,0,-0.39168
2004/12/2 20:00,4.4496,0,3.75552,0.02592,0.46656,0.56304,0.08064,0,-0.53856
2004/12/2 20:15,4.50432,0,3.89664,0.02304,0.1728,0.5832,0.0792,0,-0.52128
2004/12/2 20:30,2.26656,0,2.27952,0.0216,0,0.42624,0.08352,0,-0.22896
2004/12/2 20:45,1.42992,0,1.50624,0.03456,0.39744,0.83664,0.0792,0,-0.20304
2004/12/2 21:00,1.41408,0,1.46448,0.02736,0.35424,0.63936,0.09936,0,-0.15552
2004/12/2 21:15,1.35792,0,1.18656,0.0216,0,0.34848,0.06192,0,-0.02016
2004/12/2 21:30,1.37808,0,1.584,0.02592,0.2088,0.35424,0.11232,0,-0.12816
2004/12/2 21:45,1.23264,0,2.31264,0.03168,0.47376,0.3456,0.4032,0,-0.34272
2004/12/2 22:00,1.3032,0,2.60784,0.0216,0.02592,0.35136,0.08208,0,-0.21456
2004/12/2 22:15,2.13408,0,3.1248,0.0216,0.09072,0.34992,0.30672,0,-0.36576
2004/12/2 22:30,2.01456,0,3.0456,0.03024,0.46944,0.34992,0.08064,0,-0.35856
2004/12/2 22:45,1.77264,0,2.8512,0.02304,0.12816,0.3456,0.15984,0,-0.28224
2004/12/2 23:00,0.70416,0,2.3904,0.0216,0,0.35568,1.28736,0,-0.34272
2004/12/2 23:15,0,0,1.14624,0.02592,0.4608,0.29088,0.08352,0,-0.13392
2004/12/2 23:30,0,0,0.33408,0.02592,0.20304,0.2952,0.08352,0,-0.00432
2004/12/2 23:45,0,0,0.18144,0.0216,0,0.2376,0.07776,0,0.036
2004/12/3 0:00,0,0,0.1656,0.02592,0.38304,0.2376,0.08064,0,0.00432
2004/12/3 0:15,0,0,0.17568,0.02736,0.26784,0.2376,0.07776,0,0.02592
2004/12/3 0:30,0,0,0.17136,0.0216,0,0.2376,0.08352,0,0.05184
2004/12/3 0:45,0,0,0.17136,0.02448,0.29952,0.23616,0.08064,0,0.01872
2004/12/3 1:00,0,0,0.17136,0.02736,0.252,0.23184,0.08352,0,0.02304
2004/12/3 1:15,0,0,0.16848,0.0216,0,0.22752,0.08496,0,0.05616
2004/12/3 1:30,0,0,0.17136,0.02304,0.252,0.23184,0.08496,0,0.0216
2004/12/3 1:45,0,0,0.17568,0.02736,0.21024,0.22752,0.0792,0,0.03456
2004/12/3 2:00,0,0,0.17136,0.0216,0,0.22752,0.08496,0,0.05472
2004/12/3 2:15,0,0,0.1656,0.02448,0.27792,0.22896,0.08064,0,0.02448
2004/12/3 2:30,0,0,0.17568,0.02448,0.29952,0.22896,0.08496,0,0.01584
2004/12/3 2:45,0,0,0.16848,0.0216,0,0.22896,0.08208,0,0.06624
2004/12/3 3:00,0,0,0.17136,0.02304,0.16848,0.22608,0.08208,0,0.03888
2004/12/3 3:15,0,0,0.17712,0.02448,0.28656,0.22752,0.11664,0,0.01728
2004/12/3 3:30,0,0,0.17424,0.0216,0,0.22752,0.08064,0,0.05328
2004/12/3 3:45,0,0,0.1728,0.02592,0.17424,0.22752,0.08352,0,0.03888
2004/12/3 4:00,0,0,0.16704,0.02304,0.39456,0.22608,0.0792,0,0.01008
2004/12/3 4:15,0,0,0.17568,0.0216,0,0.22896,0.0792,0,0.06192
2004/12/3 4:30,0,0,0.17568,0.0216,0.05616,0.22608,0.08496,0,0.0504
2004/12/3 4:45,0,0,0.16992,0.02736,0.39456,0.2304,0.0864,0,0.01584
2004/12/3 5:00,0,0,0.17136,0.0216,0,0.22752,0.08496,0,0.05472
2004/12/3 5:15,0,0,0.17424,0.0216,0.05472,0.22752,0.08208,0,0.0432
2004/12/3 5:30,0,0,0.20304,0.56592,0.4536,0.22896,0.0864,0,-0.02736
2004/12/3 5:45,0,0,0.23616,1.91376,0.0576,0.22752,0.08064,0,0.09504
2004/12/3 6:00,0.02448,0,0.20592,0.2304,0,0.31248,0.08208,0,0.04032
2004/12/3 6:15,3.96864,0,1.53504,0.1944,0.36288,0.30672,0.37152,0,-0.20592
2004/12/3 6:30,2.42928,0,2.2824,1.40832,0.13968,0.22752,0.0864,0,-0.22032
2004/12/3 6:45,2.71872,0,2.27664,0.0216,0,0.22752,0.0864,0,-0.11088
2004/12/3 7:00,2.81952,0,2.16288,0.02304,0.3312,0.23616,0.34416,0,-0.16704
2004/12/3 7:15,2.78352,0,2.34432,1.2384,0.36288,0.22464,0.0864,0,-0.30528
2004/12/3 7:30,1.116,0,1.83744,0.0216,0,0.22032,0.0936,0,-0.09936
2004/12/3 7:45,0,0,0.8496,0.02448,0.19152,0.2304,0.22464,0,-0.03024
2004/12/3 8:00,0.0144,0,2.3904,0.02736,0.36288,0.39312,0.77472,0,-0.38304
2004/12/3 8:15,0,0,1.30464,0.0216,0,0.32112,0.12816,0,-0.09792
2004/12/3 8:30,0,0,0.17568,0.02304,0.10656,0.2232,0.09072,0,0.0504
2004/12/3 8:45,0,0,0.1656,0.02592,0.34416,0.21744,0.08496,0,0.03312
2004/12/3 9:00,0,0,0.17712,0.0216,0,0.2232,0.08928,0,0.05328
2004/12/3 9:15,0,0,0.16992,0.0216,0.1224,0.22464,0.08928,0,0.04464
2004/12/3 9:30,0,0,0.17424,0.02736,0.43488,0.22176,0.0936,0,0.00432
2004/12/3 9:45,0,0,0.18,0.0216,0,0.22176,0.08352,0,0.0576
2004/12/3 10:00,0,0,0.17856,0.0216,0.04464,0.22032,0.08784,0,0.05328
2004/12/3 10:15,0,0,0.17568,0.03168,0.41472,0.21744,0.08496,0,0.01008
2004/12/3 10:30,0,0,0.17424,0.0216,0,0.22032,0.08496,0,0.04608
2004/12/3 10:45,0,0,0.16992,0.02448,0.07344,0.22464,0.09072,0,0.03744
2004/12/3 11:00,0,0,0.17424,0.02736,0.46224,0.22464,0.0864,0,0.00288
2004/12/3 11:15,0,0,0.17712,0.02304,0.0432,0.22464,0.08496,0,0.05616
2004/12/3 11:30,0,0,0.1656,0.0216,0,0.22464,0.08496,0,0.06048
2004/12/3 11:45,0,0,0.17856,0.02736,0.45648,0.22176,0.08208,0,0.00288
2004/12/3 12:00,0,0,0.17136,0.02304,0.0144,0.22752,0.09216,0,0.05904
2004/12/3 12:15,0,0,0.18,0.0216,0.04896,0.22464,0.11808,0,0.03888
2004/12/3 12:30,0,0,0.1728,0.03312,0.46224,0.22464,0.08496,0,0
2004/12/3 12:45,0,0,0.16272,0.02592,0.08784,0.22032,0.072,0,0.05184
2004/12/3 13:00,0,0,0.17712,0.0216,0,0.21744,0.1008,0,0.05328
2004/12/3 13:15,0,0,0.16416,0.0288,0.43344,0.22176,0.07776,0,-0.00288
2004/12/3 13:30,0,0,0.18,0.02304,0.04464,0.22032,0.08928,0,0.04464
2004/12/3 13:45,0,0,0.16416,0.0216,0.03168,0.22032,0.08352,0,0.05616
2004/12/3 14:00,0,0,0.17424,0.02736,0.46944,0.2232,0.08496,0,0.00288
2004/12/3 14:15,0,0,0.17136,0.02448,0.108,0.2232,0.08928,0,0.0504
2004/12/3 14:30,0,0,0.17424,0.0216,0,0.22176,0.0504,0,0.05904
2004/12/3 14:45,0,0,0.17568,0.0288,0.432,0.22176,0.08352,0,0.00432
2004/12/3 15:00,0,0,0.44208,0.02448,0.1368,0.2232,0.08496,0,0.02736
2004/12/3 15:15,0,0,0.49824,0.0216,0,0.22464,0.08208,0,0.04032
2004/12/3 15:30,0.45792,0,0.54432,0.51264,0.39888,0.21888,0.08496,0,-0.05328
2004/12/3 15:45,1.07712,0,0.68832,2.0088,0.18144,0.21888,0.0864,0,-0.108
2004/12/3 16:00,0.86688,0,0.60192,0.28944,0,0.2232,0.08208,0,-0.05328
2004/12/3 16:15,1.01808,0,0.60192,0.11952,0.35424,0.21744,0.08352,0,-0.1008
2004/12/3 16:30,0.82224,0,0.88848,0.0864,0.52128,0.21888,0.08496,0,-0.17136
2004/12/3 16:45,0.73296,0,1.03248,0.08352,0.55584,0.22032,0.08352,0,-0.17712
2004/12/3 17:00,0.0288,0,1.7136,0.08784,0.45792,0.2808,0.22464,0,-0.2232
2004/12/3 17:15,0.02448,0,1.09008,0.91296,0.52416,0.21888,0.11664,0,-0.1152
2004/12/3 17:30,0,0,1.61856,0.02448,0.51552,0.21744,0.08352,0,-0.15408
2004/12/3 17:45,0,0,1.55376,0.02736,0.4752,0.22032,0.08928,0,-0.14688
2004/12/3 18:00,0,0,0.81648,0.0216,0.03312,0.36432,0.0864,0,-0.01728
2004/12/3 18:15,0,0,0.75888,0.02304,0.144,0.44208,0.0864,0,-0.04176
2004/12/3 18:30,0,0,1.58976,0.02304,0.49536,0.25488,0.08064,0,-0.14688
2004/12/3 18:45,0,0,1.75248,0.02448,0.34848,0.2376,0.08496,0,-0.15264
2004/12/3 19:00,0,0,1.71216,0.0216,0,0.23616,0.07776,0,-0.09648
2004/12/3 19:15,0.63216,0,1.61568,0.02448,0.216,0.2376,0.08352,0,-0.21456
2004/12/3 19:30,0.43488,0,0.8424,0.02592,0.49248,0.2376,0.08064,0,-0.10656
2004/12/3 19:45,0.33984,0,0.97776,0.0288,0.1656,0.23328,0.08352,0,-0.06192
2004/12/3 20:00,0.30672,0,0.96048,0.0216,0,0.2232,0.07632,0,-0.0288
2004/12/3 20:15,0.3096,0,0.98352,0.03168,0.37728,0.22032,0.08352,0,-0.04752
2004/12/3 20:30,0.33264,0,0.9576,0.0288,0.38304,0.22752,0.08064,0,-0.06912
2004/12/3 20:45,0.31104,0,0.94464,0.0216,0,0.22032,0.07632,0,-0.03312
2004/12/3 21:00,0.30384,0,1.32048,0.02304,0.14688,0.22464,0.08208,0,-0.09648
2004/12/3 21:15,0.27792,0,1.57968,0.03024,0.47232,0.22032,0.08064,0,-0.15552
2004/12/3 21:30,0.0216,0,2.04912,0.02304,0.108,0.30096,0.22752,0,-0.21888
2004/12/3 21:45,0.072,0,2.37168,0.0216,0,0.37728,0.22464,0,-0.24912
2004/12/3 22:00,0.036,0,2.36016,0.03312,0.45072,0.41904,0.08208,0,-0.26352
2004/12/3 22:15,0.0216,0,2.72304,0.0288,0.29664,0.76464,0.58608,0,-0.35136
2004/12/3 22:30,0.0144,0,4.52304,0.0216,0,0.82512,0.216,0,-0.49248
2004/12/3 22:45,0.3384,0,5.40288,0.02448,0.21456,0.5256,0.1728,0,-0.63936
2004/12/3 23:00,0.28512,0,4.78512,0.03312,0.4752,0.54,0.0864,0,-0.58176
2004/12/3 23:15,0.29376,0,3.12192,0.0216,0.02016,0.54144,0.61056,0,-0.4392
2004/12/3 23:30,0.29088,0,2.96352,0.0216,0.02304,0.53712,0.252,0,-0.37584
2004/12/3 23:45,0.27504,0,2.22048,0.03456,0.45792,0.52704,2.10096,0,-0.576
2004/12/4 0:00,0.22464,0,0.80208,0.02304,0.19584,0.35424,0.07776,0,-0.08928
2004/12/4 0:15,0.26496,0,0.54144,0.0216,0,0.34704,0.07776,0,-0.01728
2004/12/4 0:30,0.22464,0,0.33552,0.02304,0.31104,0.3456,0.07488,0,-0.04032
2004/12/4 0:45,0.22752,0,0.16848,0.02736,0.38016,0.25776,0.08208,0,-0.01152
2004/12/4 1:00,0.23904,0,0.17136,0.0216,0,0.22176,0.08064,0,0.01728
2004/12/4 1:15,0.2448,0,0.15984,0.02448,0.13392,0.22032,0.08064,0,0.03024
2004/12/4 1:30,0.2304,0,0.18288,0.0216,0.4752,0.22032,0.07632,0,-0.02448
2004/12/4 1:45,0.22896,0,0.16272,0.0216,0.04032,0.22032,0.08352,0,0.03312
2004/12/4 2:00,0.22752,0,0.18,0.0216,0,0.21888,0.08352,0,0.03456
2004/12/4 2:15,0.22608,0,0.16704,0.03168,0.43344,0.2232,0.08352,0,-0.00144
2004/12/4 2:30,0.22752,0,0.17856,0.02304,0.09216,0.22032,0.08352,0,0.0216
2004/12/4 2:45,0.2448,0,0.1728,0.0216,0,0.2232,0.08352,0,0.0288
2004/12/4 3:00,0.2448,0,0.1872,0.02592,0.38448,0.22464,0.0792,0,-0.00432
2004/12/4 3:15,0.2304,0,0.15696,0.02304,0.16128,0.22464,0.08352,0,0.03168
2004/12/4 3:30,0.22464,0,0.18576,0.0216,0,0.22464,0.0792,0,0.03024
2004/12/4 3:45,0.22608,0,0.1728,0.02304,0.28656,0.21744,0.08208,0,0.00576
2004/12/4 4:00,0.22608,0,0.17712,0.02304,0.24048,0.22176,0.08352,0,0.0072
2004/12/4 4:15,0.23184,0,0.22176,0.0216,0,0.22032,0.08064,0,0.0072
2004/12/4 4:30,0.22752,0,0.1728,0.02592,0.20736,0.2232,0.08064,0,-0.00288
2004/12/4 4:45,0.22752,0,0.18,0.0216,0.44784,0.22176,0.08208,0,-0.02016
2004/12/4 5:00,0.23904,0,0.16704,0.0216,0,0.2232,0.08352,0,0.04032
2004/12/4 5:15,0.25056,0,0.17856,0.0216,0.03456,0.22032,0.0504,0,0.03168
2004/12/4 5:30,0.22752,0,0.16992,0.02448,0.46368,0.22464,0.08496,0,-0.0144
2004/12/4 5:45,0.2304,0,0.17424,0.02304,0.00864,0.21888,0.08352,0,0.02304
2004/12/4 6:00,0.22608,0,0.1656,0.0216,0,0.22464,0.08352,0,0.0576
2004/12/4 6:15,0.22896,0,0.16128,0.02736,0.4248,0.22464,0.08064,0,-0.01728
2004/12/4 6:30,0.22752,0,0.16848,0.02448,0.22032,0.2232,0.08352,0,0.01872
2004/12/4 6:45,0.2232,0,0.14832,0.0216,0,0.216,0.09216,0,0.0504
2004/12/4 7:00,0.24048,0,0.16704,0.02304,0.26064,0.22896,0.08928,0,0.01152
2004/12/4 7:15,0.22032,0,0.18144,0.02304,0.23328,0.2232,0.09648,0,0.01584
2004/12/4 7:30,0.24624,0,0.83376,0.0216,0,0.28656,0.08352,0,-0.04608
2004/12/4 7:45,0,0,1.04112,0.81648,0.2088,0.22176,0.12096,0,-0.08208
2004/12/4 8:00,0.0144,0,1.26288,0.38592,0.33984,0.22032,0.23184,0,-0.0936
2004/12/4 8:15,0.0216,0,1.28736,0.83232,0.01584,0.2232,0.37872,0,0.05904
2004/12/4 8:30,0.036,0,2.22912,0.68688,0.1296,0.21744,0.12096,0,1.27872
2004/12/4 8:45,1.12896,0,2.23776,0.02448,0.47376,0.22176,0.3888,0,-0.3672
2004/12/4 9:00,2.96208,0,2.96496,0.0216,0.15264,0.3024,0.26496,0,-0.40896
2004/12/4 9:15,4.40928,0,2.56176,0.0216,0,0.3456,0.56592,0,-0.34704
2004/12/4 9:30,4.84704,0,3.36096,0.02592,0.31968,0.81792,1.80864,0,-0.64224
2004/12/4 9:45,2.90304,0,3.06432,0.0288,0.25488,0.90432,2.15856,0,-0.65664
2004/12/4 10:00,3.204,0,3.88224,0.0216,0,0.75744,0.08496,0,-0.51264
2004/12/4 10:15,2.73456,0,3.93984,0.02448,0.21024,0.53856,0.08784,0,-0.48672
2004/12/4 10:30,2.77056,0,2.62512,0.02448,0.31104,0.43344,0.08208,0,-0.34848
2004/12/4 10:45,2.31408,0,2.1528,0.0216,0,0.34992,0.0864,0,-0.21168
2004/12/4 11:00,2.59776,0,2.06928,0.02304,0.16272,0.35136,0.08208,0,-0.22032
2004/12/4 11:15,2.26368,0,2.1816,0.03312,0.46368,0.37728,0.21456,0,-0.32112
2004/12/4 11:30,2.11968,0,3.6504,0.0216,0.02016,0.53424,0.08064,0,-0.44784
2004/12/4 11:45,1.47024,0,3.72528,0.0216,0,0.54288,0.08496,0,-0.44928
2004/12/4 12:00,1.20816,0,2.14848,0.02448,0.46944,0.42192,0.0864,0,-0.32256
2004/12/4 12:15,0.81504,0,1.94976,0.0216,0.06768,0.35712,0.08208,0,-0.21456